| time (UTC) | temp C | wind direction | speed KPH | gust KPH | rain 1hr cm | rain 24hr cm | rain mn cm | humidity % | barometer mb |
| 20260904193034 | 30 | 330 | 0.0 | 9.7 | 0.00 | 0.00 | 0.00 | 54 | 1006.2 |
| 20260904191516 | 28 | 5 | 4.8 | 12.9 | 0.00 | 0.00 | 0.00 | 55 | 1006.5 |
| 20260904190016 | 29 | 11 | 4.8 | 14.5 | 0.00 | 0.00 | 0.00 | 56 | 1006.5 |
| 20260904184514 | 30 | 351 | 3.2 | 9.7 | 0.00 | 0.00 | 0.00 | 59 | 1006.5 |
| 20260904183014 | 29 | 37 | 3.2 | 9.7 | 0.00 | 0.00 | 0.00 | 57 | 1006.4 |
| 20260904181512 | 28 | 355 | 1.6 | 14.5 | 0.00 | 0.00 | 0.00 | 60 | 1006.4 |
| 20260904180011 | 29 | 7 | 0.0 | 9.7 | 0.00 | 0.00 | 0.00 | 59 | 1006.3 |
| 20260904174510 | 29 | 353 | 1.6 | 11.3 | 0.00 | 0.00 | 0.00 | 58 | 1006.5 |
| 20260904173008 | 29 | 173 | 0.0 | 11.3 | 0.00 | 0.00 | 0.00 | 59 | 1006.6 |
| 20260904171504 | 29 | 182 | 0.0 | 8.0 | 0.00 | 0.00 | 0.00 | 60 | 1006.6 |
| 20260904170001 | 28 | 356 | 1.6 | 11.3 | 0.00 | 0.00 | 0.00 | 61 | 1006.7 |
| 20260904164601 | 28 | 198 | 0.0 | 11.3 | 0.00 | 0.00 | 0.00 | 61 | 1006.8 |
| 20260904163057 | 27 | 188 | 0.0 | 9.7 | 0.00 | 0.00 | 0.00 | 64 | 1006.9 |
| 20260904161555 | 27 | 8 | 3.2 | 8.0 | 0.00 | 0.00 | 0.00 | 62 | 1007.1 |
| 20260904160053 | 27 | 358 | 1.6 | 9.7 | 0.00 | 0.00 | 0.00 | 65 | 1007.3 |
| 20260904154557 | 27 | 350 | 1.6 | 11.3 | 0.00 | 0.00 | 0.00 | 64 | 1007.2 |
| 20260904153151 | 27 | 353 | 3.2 | 12.9 | 0.00 | 0.00 | 0.00 | 67 | 1007.3 |
| 20260904151548 | 27 | 359 | 3.2 | 12.9 | 0.00 | 0.00 | 0.00 | 65 | 1007.3 |
| 20260904150046 | 26 | 5 | 4.8 | 11.3 | 0.00 | 0.00 | 0.00 | 67 | 1007.5 |
| 20260904144546 | 26 | 360 | 4.8 | 12.9 | 0.00 | 0.00 | 0.00 | 65 | 1007.5 |
| 20260904143043 | 26 | 12 | 6.4 | 16.1 | 0.00 | 0.00 | 0.00 | 64 | 1007.6 |
| 20260904141612 | 26 | 356 | 8.0 | 19.3 | 0.00 | 0.00 | 0.00 | 63 | 1007.6 |
| 20260904140045 | 26 | 8 | 1.6 | 8.0 | 0.00 | 0.00 | 0.00 | 69 | 1007.6 |
| 20260904134535 | 25 | 8 | 1.6 | 8.0 | 0.00 | 0.03 | 0.00 | 74 | 1007.6 |
| 20260904133032 | 25 | 358 | 0.0 | 4.8 | 0.00 | 0.03 | 0.00 | 78 | 1007.8 |
| 20260904131529 | 25 | 22 | 0.0 | 0.0 | 0.00 | 0.03 | 0.00 | 82 | 1007.9 |
| 20260904130027 | 24 | 2 | 0.0 | 0.0 | 0.00 | 0.03 | 0.00 | 82 | 1007.9 |
| 20260904124524 | 23 | 198 | 0.0 | 0.0 | 0.00 | 0.03 | 0.00 | 85 | 1008.0 |
| 20260904123020 | 23 | 7 | 0.0 | 0.0 | 0.00 | 0.03 | 0.00 | 90 | 1008.1 |
| 20260904121518 | 22 | 7 | 0.0 | 0.0 | 0.00 | 0.03 | 0.00 | 93 | 1008.2 |
| 20260904120013 | 22 | 7 | 0.0 | 0.0 | 0.00 | 0.03 | 0.00 | 94 | 1008.1 |
| 20260904114511 | 22 | 6 | 0.0 | 0.0 | 0.00 | 0.03 | 0.00 | 95 | 1008.2 |
| 20260904113027 | 22 | 7 | 0.0 | 0.0 | 0.00 | 0.03 | 0.00 | 96 | 1008.2 |
| 20260904111521 | 21 | 7 | 0.0 | 0.0 | 0.00 | 0.03 | 0.00 | 97 | 1008.0 |
| 20260904110010 | 21 | 7 | 0.0 | 0.0 | 0.00 | 0.05 | 0.00 | 96 | 1008.1 |
| 20260904104509 | 21 | 7 | 0.0 | 0.0 | 0.00 | 0.05 | 0.00 | 96 | 1008.2 |
| 20260904103009 | 21 | 7 | 0.0 | 0.0 | 0.00 | 0.05 | 0.00 | 96 | 1008.0 |
| 20260904101508 | 21 | 7 | 0.0 | 0.0 | 0.00 | 0.05 | 0.00 | 96 | 1008.0 |
| 20260904100007 | 21 | 7 | 0.0 | 0.0 | 0.00 | 0.08 | 0.00 | 96 | 1007.9 |
| 20260904094506 | 21 | 7 | 0.0 | 0.0 | 0.00 | 0.08 | 0.00 | 96 | 1007.7 |
| 20260904093005 | 21 | 7 | 0.0 | 0.0 | 0.00 | 0.08 | 0.00 | 96 | 1007.6 |
| 20260904091503 | 21 | 7 | 0.0 | 0.0 | 0.00 | 0.08 | 0.00 | 96 | 1007.6 |
| 20260904090002 | 21 | 7 | 0.0 | 0.0 | 0.00 | 0.46 | 0.00 | 96 | 1007.7 |
| 20260904084501 | 21 | 7 | 0.0 | 0.0 | 0.00 | 0.46 | 0.00 | 96 | 1007.7 |
| 20260904083100 | 21 | 7 | 0.0 | 0.0 | 0.00 | 0.46 | 0.00 | 96 | 1007.7 |
| 20260904081558 | 21 | 7 | 0.0 | 0.0 | 0.00 | 0.46 | 0.00 | 95 | 1007.6 |
| 20260904080057 | 22 | 7 | 0.0 | 0.0 | 0.00 | 0.46 | 0.00 | 95 | 1007.6 |
| 20260904074555 | 22 | 7 | 0.0 | 0.0 | 0.00 | 0.46 | 0.00 | 94 | 1007.6 |
| 20260904073054 | 22 | 7 | 0.0 | 0.0 | 0.00 | 0.46 | 0.00 | 94 | 1007.7 |
| 20260904071548 | 22 | 6 | 0.0 | 0.0 | 0.00 | 0.46 | 0.00 | 93 | 1008.1 |
| 20260904070047 | 22 | 7 | 0.0 | 0.0 | 0.00 | 0.46 | 0.00 | 94 | 1008.2 |
| 20260904064549 | 22 | 7 | 0.0 | 0.0 | 0.00 | 0.46 | 0.00 | 94 | 1008.3 |
| 20260904063043 | 22 | 6 | 0.0 | 0.0 | 0.00 | 0.46 | 0.00 | 94 | 1008.4 |
| 20260904061548 | 22 | 7 | 0.0 | 0.0 | 0.00 | 0.46 | 0.00 | 94 | 1008.5 |
| 20260904060040 | 22 | 7 | 0.0 | 0.0 | 0.00 | 0.46 | 0.00 | 94 | 1008.6 |
| 20260904054538 | 22 | 6 | 0.0 | 3.2 | 0.00 | 0.46 | 0.00 | 94 | 1008.6 |
| 20260904053036 | 22 | 338 | 0.0 | 1.6 | 0.00 | 0.46 | 0.00 | 94 | 1008.7 |
| 20260904051535 | 22 | 10 | 0.0 | 0.0 | 0.00 | 0.46 | 0.00 | 94 | 1009.0 |
| 20260904050032 | 22 | 8 | 0.0 | 1.6 | 0.00 | 0.46 | 0.00 | 94 | 1009.0 |
| 20260904044539 | 22 | 9 | 0.0 | 0.0 | 0.00 | 0.46 | 0.00 | 94 | 1009.0 |
| 20260904043025 | 22 | 9 | 0.0 | 1.6 | 0.00 | 0.46 | 0.00 | 94 | 1009.3 |
| 20260904041532 | 22 | 114 | 0.0 | 0.0 | 0.00 | 0.46 | 0.00 | 94 | 1009.4 |
| 20260904040116 | 22 | 228 | 0.0 | 1.6 | 0.00 | 0.46 | 0.00 | 94 | 1009.4 |
| 20260904034515 | 22 | 360 | 0.0 | 0.0 | 0.00 | 0.46 | 0.46 | 93 | 1009.4 |
| 20260904033015 | 22 | 2 | 0.0 | 0.0 | 0.00 | 0.46 | 0.46 | 93 | 1009.4 |
| 20260904031514 | 22 | 359 | 0.0 | 0.0 | 0.00 | 0.46 | 0.46 | 93 | 1009.5 |
| 20260904030014 | 22 | 359 | 0.0 | 0.0 | 0.00 | 0.46 | 0.46 | 93 | 1009.4 |
| 20260904024514 | 22 | 359 | 0.0 | 0.0 | 0.00 | 0.46 | 0.46 | 92 | 1009.6 |
| 20260904023013 | 23 | 358 | 0.0 | 0.0 | 0.00 | 0.46 | 0.46 | 92 | 1009.8 |
| 20260904021515 | 23 | 358 | 0.0 | 0.0 | 0.00 | 0.46 | 0.46 | 92 | 1009.8 |
| 20260904020012 | 23 | 358 | 0.0 | 0.0 | 0.00 | 0.46 | 0.46 | 92 | 1009.9 |
| 20260904014512 | 23 | 358 | 0.0 | 1.6 | 0.00 | 0.46 | 0.46 | 91 | 1010.1 |
| 20260904013011 | 23 | 358 | 0.0 | 0.0 | 0.00 | 0.46 | 0.46 | 90 | 1010.3 |
| 20260904011510 | 23 | 358 | 0.0 | 0.0 | 0.00 | 0.46 | 0.46 | 91 | 1010.4 |
| 20260904010010 | 23 | 359 | 0.0 | 0.0 | 0.00 | 0.46 | 0.46 | 90 | 1010.2 |
| 20260904004510 | 23 | 359 | 0.0 | 0.0 | 0.00 | 0.46 | 0.46 | 90 | 1010.0 |
| 20260904003009 | 23 | 359 | 0.0 | 0.0 | 0.00 | 0.46 | 0.46 | 90 | 1010.0 |
| 20260904001509 | 23 | 359 | 0.0 | 0.0 | 0.00 | 0.46 | 0.46 | 89 | 1009.8 |
| 20260904000007 | 24 | 359 | 0.0 | 0.0 | 0.00 | 0.46 | 0.46 | 88 | 1009.4 |
| 20260903234509 | 24 | 359 | 0.0 | 0.0 | 0.00 | 0.46 | 0.46 | 87 | 1009.4 |
| 20260903233008 | 25 | 359 | 0.0 | 0.0 | 0.00 | 0.46 | 0.46 | 86 | 1009.3 |
| 20260903231505 | 25 | 359 | 0.0 | 0.0 | 0.00 | 0.46 | 0.46 | 85 | 1009.2 |
| 20260903230003 | 26 | 359 | 0.0 | 0.0 | 0.00 | 0.46 | 0.46 | 83 | 1009.0 |
| 20260903224502 | 26 | 359 | 0.0 | 0.0 | 0.00 | 0.46 | 0.46 | 81 | 1009.2 |
| 20260903223114 | 26 | 359 | 0.0 | 0.0 | 0.00 | 0.46 | 0.46 | 80 | 1009.3 |
| 20260903221559 | 26 | 359 | 0.0 | 0.0 | 0.00 | 0.46 | 0.46 | 79 | 1009.5 |
| 20260903220107 | 27 | 2 | 0.0 | 3.2 | 0.00 | 0.46 | 0.46 | 78 | 1009.4 |
| 20260903214559 | 27 | 342 | 0.0 | 1.6 | 0.00 | 0.46 | 0.46 | 76 | 1009.3 |
| 20260903213058 | 27 | 10 | 0.0 | 3.2 | 0.00 | 0.46 | 0.46 | 78 | 1009.2 |
| 20260903211610 | 27 | 344 | 0.0 | 3.2 | 0.00 | 0.46 | 0.46 | 76 | 1009.4 |
| 20260903210057 | 27 | 200 | 0.0 | 3.2 | 0.00 | 0.46 | 0.46 | 76 | 1009.3 |
| 20260903204602 | 27 | 189 | 0.0 | 1.6 | 0.00 | 0.46 | 0.46 | 75 | 1009.3 |
| 20260903203055 | 27 | 202 | 0.0 | 0.0 | 0.00 | 0.46 | 0.46 | 78 | 1009.3 |
| 20260903201553 | 28 | 191 | 0.0 | 1.6 | 0.00 | 0.46 | 0.46 | 75 | 1009.6 |
| 20260903200054 | 28 | 169 | 0.0 | 0.0 | 0.00 | 0.46 | 0.46 | 75 | 1009.7 |
| 20260903194553 | 28 | 172 | 0.0 | 1.6 | 0.00 | 0.46 | 0.46 | 73 | 1009.8 |